sat.trackr.live / text

‹ back to catalog

STARLINK-4133

NORAD 53253 · 2022-086M

PAYLOAD ACTIVE UNKNOWN

§ Identity

Operator
Country
US
Launch date
2022-07-24
Launch site
AFETR
Launch vehicle
Mass (kg)
RCS (m²)

Purposes: comms

External: N2YO · Heavens-Above · Gunter

§ Orbital elements

Epoch: 2026-09-19T23:11:17.760192Z

Period
93.90 min
Inclination
53.1623°
Eccentricity
0.0001639
Mean motion
15.33546109 rev/d
Perigee alt
464.1 km
Apogee alt
466.4 km
Semi-major
6,843.4 km
B*
-7.3095e-5
RAAN
27.8534°
Arg perigee
49.8517°
Mean anomaly
310.2628°
Rev number
23,058

§ Raw data

STARLINK-41331 53253U 22086M   26262.96617778 -.00002776  00000+0 -73095-4 0  99962 53253  53.1623  27.8534 0001639  49.8517 310.2628 15.33546109230589

JSON: /api/v1/satellites/53253 · /tle

For live sub-satellite position, see the globe view (requires WebGL).

§ Visibility from observer

Set your observer location to see the next 7 days of passes ≥ 10°. The values pass through the URL so the page stays shareable.

No JS? Fill the form by hand. The geolocation button needs JavaScript.